Location: *
(46.4000°N, 12.6667°E)
Time: 09:42:06
(UTC+00:00)

X-37B - Visible Passes

Search period start: 30 September 2022 00:00
Search period end: 10 October 2022 00:00
Orbit: 329 x 342 km, 45.0° (Epoch: 29 September)

Date Brightness Start Highest point End Pass type
(mag) Time Alt. Az. Time Alt. Az. Time Alt. Az.
30 Sep 1.4 03:10:50 43° ESE 03:10:50 43° ESE 03:12:59 10° E visible
01 Oct 0.3 03:30:26 66° SSW 03:30:32 67° S 03:33:25 10° E visible
02 Oct 0.6 03:50:05 36° WSW 03:50:56 54° S 03:53:46 10° ESE visible
03 Oct 3.7 02:38:32 12° E 02:38:32 12° E 02:38:51 10° E visible
03 Oct 1.3 04:09:46 20° WSW 04:11:16 33° SSW 04:13:55 10° SE visible
04 Oct 3.0 02:58:18 18° ESE 02:58:18 18° ESE 02:59:12 10° ESE visible
04 Oct 2.2 04:29:32 11° WSW 04:31:30 18° SSW 04:33:36 10° SSE visible
05 Oct 2.5 03:18:09 20° SSE 03:18:09 20° SSE 03:19:22 10° SE visible
06 Oct 2.7 03:38:08 15° S 03:38:08 15° S 03:39:02 10° SSE visible
